Flag for Australia Weather past 2 weeks in Cairns, Queensland, Australia

Now
63 °F

Clear.


Feels Like: 63 °F
Forecast: 61 / 78 °F
Wind: 13 mph from Southeast

Location: Cairns Airport

Current Time: Jul 23, 2014 at 2:04:24 AM

Latest Report: Jul 23, 2014 at 1:30 AM


Visibility: N/A

Pressure: 30.04 "Hg

Humidity: 83%

Dew point: 57 °F

Location of CairnsLocation

Historic Weather in Cairns — Graph

°F

Cairns temperature yesterday

Maximum temperature yesterday: 77 °F (at 1:00 PM)
Minimum temperature yesterday: 57 °F (at 6:00 AM)
Average temperature yesterday: 67 °F

Past Weeks' High & Low Weather Summary

 TemperatureHumidityPressure
High82 °F (Jul 17, 12:00 PM)100% (Jul 8, 12:30 AM)30.12 "Hg (Jul 8, 12:30 AM)
Low52 °F (Jul 19, 3:00 AM)24% (Jul 18, 2:00 PM)29.86 "Hg (Jul 9, 4:00 PM)
Average68 °F68%30.04 "Hg
* Reported Midnight between Jul 7 and Jul 8 — Midnight between Jul 22 and Jul 23, Cairns, Weather by CustomWeather, © 2014

Note: Actual official high and low records may vary slightly from our data, if they occured in-between our weather recording intervals... More about our weather records

Advertising

Cairns weather history for previous 24 hours

 ConditionsComfort  
Time TempWeatherWind HumidityBarometerVisibility
12:00 AM
Jul 23
66 °FClear.8 mph73%30.07 "HgN/A
11:30 PM
Jul 22
64 °FClear.7 mph78%30.07 "Hg10 mi
11:00 PM66 °FClear.9 mph73%30.07 "Hg10 mi
10:30 PM64 °FClear.9 mph78%30.07 "Hg10 mi
10:00 PM66 °FClear.10 mph73%30.07 "Hg10 mi
9:30 PM66 °FClear.9 mph73%30.07 "Hg10 mi
9:00 PM66 °FClear.9 mph73%30.07 "Hg10 mi
8:00 PM68 °FClear.5 mph69%30.07 "Hg10 mi
7:30 PM68 °FClear.8 mph73%30.04 "Hg10 mi
7:00 PM70 °FClear.8 mph69%30.04 "Hg10 mi
6:30 PM66 °FClear.7 mph73%30.01 "Hg10 mi
6:00 PM70 °FSunny.6 mph64%30.01 "Hg10 mi
5:30 PM72 °FPassing clouds.7 mph57%30.01 "HgN/A
5:00 PM73 °FPassing clouds.8 mph53%30.01 "HgN/A
4:30 PM75 °FMostly cloudy.13 mph47%30.01 "HgN/A
4:00 PM75 °FPassing clouds.14 mph50%30.01 "HgN/A
3:30 PM77 °FPassing clouds.14 mph44%29.98 "HgN/A
3:00 PM77 °FPassing clouds.12 mph44%29.98 "HgN/A
2:00 PM77 °FPassing clouds.13 mph51%30.01 "HgN/A
1:30 PM77 °FPassing clouds.9 mph51%30.01 "HgN/A
1:00 PM77 °FPassing clouds.9 mph47%30.04 "HgN/A
12:30 PM75 °FPassing clouds.8 mph50%30.07 "HgN/A
12:00 PM75 °FPassing clouds.8 mph50%30.07 "HgN/A
11:30 AM75 °FPassing clouds.7 mph50%30.09 "HgN/A
11:00 AM73 °FPassing clouds.8 mph50%30.09 "HgN/A
10:30 AM72 °FPassing clouds.9 mph53%30.09 "HgN/A
10:00 AM72 °FPassing clouds.9 mph50%30.12 "HgN/A
9:30 AM70 °FPassing clouds.8 mph57%30.12 "HgN/A
9:00 AM68 °FPassing clouds.12 mph60%30.12 "HgN/A
8:30 AM64 °FPassing clouds.12 mph73%30.09 "HgN/A
8:00 AM63 °FPassing clouds.13 mph77%30.09 "HgN/A
7:00 AM59 °FPassing clouds.10 mph82%30.09 "HgN/A
6:00 AM57 °FPassing clouds.12 mph88%30.07 "HgN/A
5:30 AM59 °FPassing clouds.14 mph82%30.07 "HgN/A
5:00 AM59 °FPassing clouds.13 mph82%30.07 "HgN/A
4:30 AM59 °FPassing clouds.13 mph82%30.07 "HgN/A
4:00 AM59 °FPassing clouds.15 mph82%30.07 "HgN/A
3:30 AM59 °FPassing clouds.14 mph82%30.07 "HgN/A
3:00 AM61 °FPassing clouds.10 mph83%30.07 "HgN/A
2:30 AM61 °FPassing clouds.9 mph83%30.09 "HgN/A
2:00 AM61 °FPassing clouds.12 mph83%30.09 "HgN/A
Weather by CustomWeather, © 2014

See weather overviewHow to use our weather pages